Total_Precipitation_Accumulation
0.44 0.38 0.48 0.55 0.52 0.55 0.73 0.72 0.61 0.40 0.33 0.37 0.38 0.39 0.38 0.38 0.34 0.31 0.36 0.40 0.44 0.51 0.55 0.56 0.57 0.57 0.59 0.70 0.78 0.99 1.21 1.39 1.39 1.36 1.42 1.44 1.40 1.45 1.47 1.51 1.58 1.70 1.82 1.98
0.34 0.24 0.32 0.40 0.36 0.41 0.46 0.47 0.43 0.34 0.38 0.35 0.36 0.32 0.35 0.37 0.36 0.36 0.39 0.42 0.41 0.46 0.51 0.54 0.56 0.56 0.59 0.67 0.74 0.88 1.07 1.26 1.35 1.34 1.40 1.42 1.36 1.41 1.46 1.49 1.52 1.63 1.67 1.69
0.51 0.24 0.46 0.65 0.48 0.46 0.47 0.48 0.47 0.46 0.44 0.36 0.34 0.35 0.39 0.39 0.40 0.42 0.44 0.43 0.43 0.47 0.50 0.51 0.52 0.52 0.58 0.66 0.69 0.76 0.92 1.10 1.22 1.26 1.28 1.29 1.29 1.35 1.42 1.46 1.44 1.48 1.51 1.49
0.80 0.60 0.98 0.72 0.39 0.41 0.47 0.52 0.50 0.48 0.42 0.39 0.39 0.41 0.40 0.39 0.43 0.45 0.45 0.42 0.44 0.49 0.50 0.49 0.49 0.51 0.55 0.59 0.64 0.68 0.79 0.94 1.14 1.19 1.17 1.16 1.19 1.22 1.28 1.35 1.38 1.33 1.33 1.32
1.17 0.88 0.63 0.40 0.28 0.40 0.50 0.56 0.50 0.41 0.34 0.33 0.33 0.33 0.36 0.35 0.35 0.40 0.42 0.40 0.43 0.49 0.51 0.49 0.47 0.50 0.53 0.56 0.59 0.65 0.76 0.87 1.01 1.12 1.12 1.08 1.12 1.12 1.14 1.17 1.23 1.20 1.18 1.23
1.39 1.05 0.65 0.43 0.22 0.26 0.44 0.63 0.41 0.34 0.32 0.32 0.34 0.41 0.41 0.34 0.30 0.32 0.32 0.34 0.39 0.44 0.47 0.47 0.47 0.48 0.51 0.57 0.59 0.62 0.75 0.86 0.92 0.99 1.02 0.99 1.03 1.06 1.06 1.04 1.07 1.07 1.03 1.06
1.17 0.96 0.48 0.28 0.18 0.23 0.57 0.67 0.35 0.30 0.30 0.31 0.40 0.45 0.38 0.31 0.29 0.30 0.32 0.34 0.37 0.41 0.42 0.45 0.46 0.48 0.51 0.56 0.62 0.63 0.71 0.78 0.82 0.87 0.90 0.87 0.93 0.94 0.97 0.99 0.98 0.97 0.92 0.95
0.97 1.07 0.58 0.25 0.25 0.50 0.61 0.32 0.25 0.23 0.24 0.26 0.28 0.27 0.26 0.28 0.30 0.32 0.34 0.34 0.35 0.38 0.37 0.39 0.42 0.43 0.48 0.55 0.61 0.62 0.63 0.65 0.73 0.79 0.80 0.78 0.88 0.87 0.87 0.93 0.97 0.97 0.95 0.98
0.79 0.70 0.46 0.34 0.41 0.43 0.36 0.29 0.22 0.22 0.21 0.23 0.25 0.25 0.27 0.30 0.31 0.33 0.34 0.33 0.33 0.34 0.34 0.36 0.40 0.42 0.46 0.51 0.55 0.62 0.62 0.62 0.66 0.74 0.80 0.81 0.86 0.88 0.88 0.88 0.91 0.94 0.95 0.92
0.53 0.40 0.34 0.33 0.31 0.26 0.22 0.23 0.21 0.21 0.23 0.24 0.26 0.26 0.28 0.29 0.32 0.34 0.36 0.34 0.34 0.33 0.34 0.37 0.41 0.44 0.46 0.49 0.53 0.61 0.61 0.60 0.63 0.70 0.81 0.82 0.85 0.87 0.89 0.91 0.98 1.01 0.97 0.92
0.45 0.33 0.27 0.23 0.23 0.23 0.20 0.18 0.18 0.18 0.20 0.23 0.25 0.26 0.27 0.30 0.33 0.36 0.36 0.34 0.33 0.32 0.34 0.37 0.40 0.43 0.43 0.46 0.51 0.58 0.61 0.60 0.61 0.66 0.79 0.83 0.87 0.90 0.92 0.90 1.08 1.21 1.08 1.07
0.40 0.30 0.35 0.28 0.22 0.23 0.23 0.21 0.20 0.21 0.22 0.21 0.23 0.26 0.28 0.33 0.35 0.36 0.35 0.33 0.32 0.31 0.32 0.36 0.40 0.42 0.43 0.44 0.49 0.56 0.62 0.64 0.63 0.66 0.79 0.83 0.87 0.93 0.98 0.96 1.00 1.01 1.05 1.12
0.29 0.21 0.23 0.24 0.23 0.22 0.23 0.23 0.24 0.25 0.25 0.25 0.24 0.25 0.30 0.34 0.35 0.35 0.34 0.35 0.35 0.36 0.36 0.38 0.41 0.43 0.45 0.45 0.46 0.54 0.63 0.66 0.67 0.67 0.77 0.83 0.80 0.87 0.91 0.91 0.93 0.95 0.97 1.03
0.21 0.22 0.22 0.21 0.24 0.22 0.21 0.21 0.23 0.23 0.23 0.24 0.25 0.28 0.30 0.32 0.33 0.32 0.34 0.38 0.37 0.35 0.36 0.39 0.39 0.42 0.46 0.45 0.44 0.50 0.59 0.64 0.68 0.71 0.76 0.81 0.80 0.81 0.80 0.85 0.90 0.93 0.99 1.06
0.18 0.22 0.23 0.21 0.21 0.19 0.18 0.18 0.19 0.21 0.22 0.22 0.22 0.25 0.29 0.30 0.32 0.32 0.33 0.35 0.34 0.33 0.34 0.34 0.36 0.40 0.43 0.42 0.43 0.51 0.61 0.68 0.71 0.76 0.80 0.81 0.81 0.82 0.79 0.80 0.83 0.88 0.96 1.13
0.18 0.16 0.16 0.18 0.18 0.19 0.18 0.18 0.20 0.24 0.25 0.24 0.25 0.29 0.32 0.32 0.30 0.29 0.30 0.30 0.32 0.34 0.35 0.35 0.37 0.41 0.43 0.42 0.42 0.49 0.60 0.77 0.84 0.86 0.86 0.85 0.85 0.83 0.82 0.83 0.85 0.88 0.96 1.12
0.23 0.18 0.17 0.17 0.18 0.19 0.21 0.22 0.23 0.26 0.27 0.28 0.32 0.33 0.33 0.30 0.27 0.27 0.30 0.31 0.32 0.34 0.36 0.38 0.40 0.41 0.43 0.43 0.47 0.53 0.63 0.74 0.86 0.89 0.89 0.90 0.90 0.88 0.86 0.88 0.90 0.90 0.95 1.10
0.26 0.23 0.22 0.24 0.24 0.23 0.22 0.22 0.23 0.26 0.28 0.30 0.31 0.33 0.34 0.32 0.31 0.32 0.34 0.32 0.29 0.30 0.36 0.40 0.42 0.43 0.42 0.45 0.53 0.59 0.69 0.78 0.86 0.95 0.99 1.01 1.01 0.95 0.93 0.93 0.91 0.92 0.97 1.07
0.22 0.22 0.22 0.22 0.24 0.24 0.25 0.26 0.26 0.25 0.25 0.25 0.27 0.30 0.32 0.33 0.33 0.34 0.33 0.30 0.31 0.37 0.43 0.43 0.44 0.41 0.43 0.50 0.62 0.68 0.76 0.85 0.92 0.99 1.02 1.11 1.09 1.01 0.98 0.96 0.96 0.96 1.00 1.06
0.24 0.23 0.23 0.22 0.21 0.23 0.25 0.27 0.27 0.24 0.24 0.25 0.26 0.27 0.28 0.31 0.33 0.34 0.34 0.35 0.41 0.49 0.50 0.49 0.45 0.45 0.52 0.60 0.72 0.76 0.81 0.91 0.99 1.04 1.07 1.11 1.13 1.13 1.09 1.05 1.03 1.03 1.05 1.07
0.27 0.25 0.24 0.23 0.21 0.22 0.24 0.27 0.29 0.26 0.25 0.28 0.31 0.32 0.32 0.33 0.34 0.34 0.36 0.41 0.46 0.49 0.50 0.49 0.49 0.57 0.70 0.78 0.78 0.77 0.84 0.96 1.02 1.06 1.11 1.15 1.18 1.17 1.15 1.11 1.08 1.08 1.08 1.06
0.31 0.30 0.28 0.27 0.27 0.29 0.29 0.30 0.32 0.32 0.30 0.31 0.33 0.34 0.35 0.36 0.35 0.36 0.41 0.52 0.58 0.57 0.53 0.52 0.58 0.71 0.82 0.83 0.77 0.80 0.89 1.01 1.08 1.09 1.14 1.16 1.22 1.25 1.20 1.17 1.15 1.11 1.11 1.09
0.39 0.38 0.37 0.38 0.39 0.40 0.37 0.37 0.39 0.39 0.40 0.41 0.41 0.41 0.42 0.44 0.42 0.42 0.51 0.57 0.58 0.59 0.58 0.65 0.72 0.77 0.80 0.80 0.82 0.87 0.98 1.11 1.18 1.18 1.20 1.21 1.25 1.30 1.30 1.25 1.18 1.16 1.17 1.15
0.49 0.47 0.48 0.50 0.48 0.45 0.47 0.49 0.49 0.49 0.50 0.52 0.53 0.51 0.50 0.48 0.48 0.52 0.60 0.63 0.62 0.62 0.66 0.73 0.74 0.75 0.78 0.80 0.87 0.98 1.11 1.21 1.26 1.27 1.27 1.27 1.29 1.33 1.33 1.30 1.24 1.17 1.14 1.13
0.55 0.55 0.55 0.55 0.58 0.61 0.61 0.58 0.54 0.53 0.52 0.54 0.56 0.55 0.56 0.56 0.60 0.66 0.66 0.65 0.64 0.64 0.66 0.69 0.71 0.72 0.74 0.82 0.93 1.08 1.20 1.28 1.37 1.39 1.37 1.36 1.34 1.35 1.35 1.30 1.23 1.14 1.10 1.08
0.59 0.60 0.63 0.66 0.70 0.71 0.67 0.61 0.59 0.58 0.55 0.54 0.55 0.56 0.58 0.59 0.62 0.65 0.66 0.66 0.65 0.67 0.69 0.69 0.71 0.75 0.82 0.90 0.99 1.12 1.21 1.28 1.38 1.41 1.36 1.34 1.33 1.33 1.34 1.29 1.17 1.09 1.02 1.00
0.60 0.61 0.60 0.61 0.65 0.68 0.67 0.65 0.64 0.63 0.58 0.55 0.56 0.57 0.58 0.60 0.61 0.63 0.62 0.63 0.65 0.66 0.69 0.72 0.75 0.81 0.88 0.96 1.05 1.13 1.20 1.27 1.38 1.45 1.41 1.36 1.35 1.35 1.33 1.24 1.12 1.03 0.97 0.95